RH
39 43 42 40 33 25 22 20 18 17 14 14 15 16 17 22 22 23 26 34 27 29 28 30 31 34 28 29 28 31 31 34 36
41 44 46 42 34 26 20 17 14 13 14 14 15 15 16 22 26 31 30 29 31 31 30 28 26 26 29 33 32 36 35 37 38
48 47 44 42 36 26 20 14 14 14 14 16 15 14 16 25 28 29 31 32 31 30 26 25 25 27 35 37 35 36 39 41 43
55 52 46 41 34 29 20 15 15 15 16 16 16 15 17 26 28 30 31 28 27 26 23 25 28 31 33 34 37 39 42 45 46
60 56 49 43 33 29 23 18 16 16 16 17 17 17 20 27 28 29 28 26 24 24 26 28 31 34 34 36 40 42 46 48 48
68 60 54 47 34 30 27 22 18 18 17 17 18 19 27 28 29 29 24 25 26 27 29 31 33 36 37 38 42 46 48 50 51
72 62 56 50 40 32 30 26 21 19 18 18 19 25 27 29 29 28 24 26 27 29 31 33 36 39 39 40 44 49 52 53 51
70 64 59 55 47 37 34 30 25 27 24 20 24 26 29 28 29 25 25 26 28 31 33 36 39 41 42 44 47 50 55 54 50
72 70 63 58 52 46 40 39 35 28 27 27 27 27 29 30 28 25 25 27 30 33 35 38 41 43 45 49 53 55 58 55 51
77 72 68 63 59 52 46 42 39 33 30 30 30 29 29 27 26 29 26 28 31 34 37 40 43 45 47 51 54 54 57 57 54
79 75 70 68 60 55 48 43 41 39 34 31 30 31 29 29 27 28 26 30 32 35 38 41 44 48 47 52 55 54 56 56 56
82 77 72 71 63 58 50 47 43 43 39 34 32 31 33 29 28 29 33 33 34 36 39 41 45 46 50 59 62 58 56 55 53
80 81 74 73 69 63 57 49 49 47 42 39 34 33 31 32 32 32 35 35 37 39 42 44 48 51 51 49 50 47 47 52 50
78 79 78 72 70 65 61 54 49 51 49 45 40 34 33 33 34 34 38 38 39 42 45 48 50 50 48 46 48 47 48 49 49
79 81 83 80 72 73 65 59 53 53 51 49 45 40 34 34 35 37 38 41 41 43 48 52 53 51 50 48 47 48 46 48 48
81 80 82 82 79 72 71 64 55 54 55 53 50 46 42 37 36 36 38 40 44 45 48 54 55 54 54 52 51 53 53 56 52
72 81 81 81 84 77 76 75 67 63 58 58 55 56 48 44 40 38 38 41 43 45 48 53 58 58 58 56 54 54 53 55 53
61 73 79 82 85 83 80 78 78 70 63 59 61 60 56 49 45 39 40 42 43 45 49 52 60 58 60 60 55 53 52 54 54
58 58 67 76 80 84 84 83 82 86 77 64 61 60 57 55 53 44 43 44 45 44 46 52 60 60 61 61 57 53 54 55 52
58 58 60 74 78 79 84 88 80 83 86 73 70 65 60 57 56 52 47 48 50 50 49 52 61 62 61 61 60 54 56 56 56